Regional Weather Roundup
Issued by NWS

Home | Current Version | Previous Version | Text Only | Print | Product List | Glossary Off
Versions: 1 2 3 4 5 6 7 8 9 10 11 12 13 14 15 16 17 18 19 20 21 22 23 24 25 26 27 28 29 30 31 32 33 34 35 36 37 38 39 40 41 42 43 44 45 46 47 48 49 50

000
ASUS43 KLMK 210810
RWRKY
KENTUCKY REGIONAL WEATHER ROUNDUP
NATIONAL WEATHER SERVICE LOUISVILLE KY
400 AM EDT SAT OCT 21 2017

NOTE "FAIR" INDICATES FEW OR NO CLOUDS BELOW 12,000 FEET
WITH NO SIGNIFICANT WEATHER AND/OR OBSTRUCTIONS TO VISIBILITY.

KYZ001>023-026-027-061>063-070>075-210900-
WESTERN AND SOUTH CENTRAL KENTUCKY

CITY           SKY/WX    TMP DP  RH WIND       PRES   REMARKS
PADUCAH        MOCLDY    60  46  59 S5        30.11R
HENDERSON      MOCLDY    54  49  83 CALM      30.13F
OWENSBORO      PTCLDY    55  51  86 SE3       30.15S
HOPKINSVILLE   CLOUDY    54  50  87 SE6       30.15S
BOWLING GREEN  PTCLDY    49  48  97 CALM      30.18S
GLASGOW        PTCLDY    48  48 100 CALM      30.18S
$$

KYZ024-025-028>034-038-045-046-053-210900-
NORTH CENTRAL KENTUCKY

CITY           SKY/WX    TMP DP  RH WIND       PRES   REMARKS
LOUISVILLE/SDF PTCLDY    55  51  86 SE5       30.16S
LOUISVILLE/LOU CLEAR     54  53  97 CALM      30.18S
FORT KNOX      PTCLDY    53  51  93 CALM      30.15S
$$

KYZ035>037-039>044-047>052-055>060-089>105-210900-
NORTHEAST KENTUCKY

CITY           SKY/WX    TMP DP  RH WIND       PRES   REMARKS
LEXINGTON      CLEAR     53  48  83 SE6       30.19F
COVINGTON      CLOUDY    55  52  89 S8        30.18S
FRANKFORT      CLEAR     48  44  86 CALM      30.18S
$$

KYZ054-064>069-076>088-106>120-210900-
SOUTHEAST KENTUCKY

CITY           SKY/WX    TMP DP  RH WIND       PRES   REMARKS
JACKSON        CLEAR     56  50  80 S3        30.21F
LONDON         CLEAR     47  45  93 CALM      30.22S
SOMERSET       CLEAR     46  46 100 CALM      30.23S FOG
MIDDLESBORO    FOG       46  46 100 CALM      30.26S VSB 3/4
MONTICELLO     CLOUDY    43  42  97 NW8       30.23R
$$





USA.gov is the U.S. government's official web portal to all federal, state and local government web resources and services.